Regional Weather Roundup
Issued by NWS

Home | Current Version | Previous Version | Graphics & Text | Print | Product List | Glossary Off
Versions: 1 2 3 4 5 6 7 8 9 10 11 12 13 14 15 16 17 18 19 20 21 22 23 24 25 26 27 28 29 30 31 32 33 34 35 36 37 38 39 40 41 42 43 44 45 46 47 48 49 50

000
ASUS43 KDMX 181707
RWRIA

WEATHER ROUNDUP FOR IOWA
NATIONAL WEATHER SERVICE DES MOINES IA
1200 PM CDT SAT APR 18 2015

NOTE: "FAIR" INDICATES FEW OR NO CLOUDS BELOW 12,000 FEET WITH NO
SIGNIFICANT WEATHER AND/OR OBSTRUCTIONS TO VISIBILITY.

* - THESE STATIONS ARE NOT NWS STATIONS...THUS NOT UNDER NWS
QUALITY CONTROL.  THEY ALSO DO NOT REPORT WEATHER SUCH
AS PRECIPITATION OR FOG.

IAZ001>003-012>014-020>022-031>034-043>046-181800-
   NORTHWEST IOWA

CITY           SKY/WX    TMP DP  RH WIND       PRES   REMARKS
CARROLL *      CLOUDY    63  57  82 E17G25    29.93F
CHEROKEE *     RAIN      59  57  94 S6        29.95F
DENISON *      LGT RAIN  59  59 100 E12       29.92S
LE MARS *      DRIZZLE   61  55  82 SE13G20   29.94S
ORANGE CITY *  MOSUNNY   64  50  59 SE13G18   29.94S
SHELDON *      CLOUDY    66  48  52 SE23      29.93F
SIOUX CITY     HVY RAIN  57  55  93 SW7       29.96R FOG
SPENCER        CLOUDY    67  46  47 SE22G29   29.96F
STORM LAKE *   CLOUDY    57  57 100 E13       29.96F
$$

IAZ055>058-069>071-079>083-090>094-181800-
   SOUTHWEST IOWA

CITY           SKY/WX    TMP DP  RH WIND       PRES   REMARKS
ATLANTIC *     PTSUNNY   68  59  73 VRB5G13   29.92R
AUDUBON *      MOSUNNY   64  57  77 E14       29.93F
CLARINDA *     DRIZZLE   61  61 100 NW7       29.93F
COUNCIL BLFS * LGT RAIN  61  61 100 N3        29.93F
CRESTON *      LGT RAIN  61  61 100 E17       29.92F
HARLAN  *      LGT RAIN  59  59 100 SW6       29.98R
LAMONI         CLOUDY    70  58  65 SE10      29.91F
RED OAK *      LGT RAIN  61  61 100 CALM      29.94S
SHENANDOAH *   LGT RAIN  61  61 100 NE6       29.93F
$$

IAZ047>049-059>061-072>074-084-181800-
   CENTRAL IOWA

CITY           SKY/WX    TMP DP  RH WIND       PRES   REMARKS
AMES           CLOUDY    65  54  67 NE7       29.95F
ANKENY *       MOSUNNY   72  61  68 NE8       29.93F
CHARITON *     MOSUNNY   72  59  64 SE18      29.93S
DES MOINES     CLOUDY    72  55  55 E9        29.93F
GRINNELL*      PTSUNNY   72  55  56 E13       29.97S
KNOXVILLE *    PTSUNNY   72  57  60 SE12      29.93F
MARSHALLTOWN   PTSUNNY   74  54  49 SE15      29.95F
PELLA *        MOSUNNY   73  59  60 SE9G17    29.96S
PERRY *          N/A     68  57  68 E14G20    29.93F
$$

IAZ004>006-015-016-023>025-035-036-181800-
   NORTH CENTRAL IOWA

CITY           SKY/WX    TMP DP  RH WIND       PRES   REMARKS
ALGONA *       PTSUNNY   63  43  48 SE14G21   29.99F
CLARION *      CLOUDY    59  52  77 E7        29.98F
ESTHERVILLE    PTSUNNY   69  39  33 SE25G36   29.97F
FORT DODGE *   CLOUDY    55  48  76 E10       30.00S
MASON CITY     CLOUDY    68  37  32 E14       30.01F
FOREST CITY *  MOSUNNY   64  36  34 E10       30.00F
IOWA FALLS *   PTSUNNY   73  48  40 SE10      29.97F
$$

IAZ007>011-017>019-026>030-037>042-050>054-066-181800-
   NORTHEAST IOWA

CITY           SKY/WX    TMP DP  RH WIND       PRES   REMARKS
CEDAR RAPIDS   CLOUDY    73  51  46 E13       29.98F
CHARLES CITY * MOSUNNY   73  39  29 E18G24    30.00F
CLINTON *      PTSUNNY   75  52  43 E14       30.03F
DECORAH *      SUNNY     72  37  28 E13G22    30.02F
DUBUQUE        MOSUNNY   74  43  32 E16       30.03S
MONTICELLO *   SUNNY     75  48  38 E14G21    30.00S
OELWEIN *      SUNNY     75  43  31 SE22      30.00F
WATERLOO       CLOUDY    76  47  35 SE17G26   29.97F
$$

IAZ064-065-067-068-078-181800-
   EAST CENTRAL IOWA

CITY           SKY/WX    TMP DP  RH WIND       PRES   REMARKS
DAVENPORT      PTSUNNY   75  51  43 E14       30.01S
IOWA CITY      CLOUDY    76  52  43 SE10      29.99F
MT. PLEASANT * PTSUNNY   75  55  50 SE10G16   29.99S
MUSCATINE *    PTSUNNY   73  57  56 S8G14     30.00R
QUAD CITIES    CLOUDY    76  53  44 E10       29.99F
$$

IAZ062-063-075>077-085>089-095>099-181800-
   SOUTHEAST IOWA

CITY           SKY/WX    TMP DP  RH WIND       PRES   REMARKS
BURLINGTON     PTSUNNY   75  57  53 S10       29.99S
FAIRFIELD *    MOSUNNY   77  55  47 SE18      29.97F
FORT MADISON * SUNNY     75  55  50 SE13      29.99F
KEOKUK *       MOSUNNY   75  61  60 S10       29.98F
OSKALOOSA *      N/A     75  54  46 SE17G24   29.96F
CENTERVILLE *  MOSUNNY   68  59  73 SE10      29.97S
OTTUMWA        CLOUDY    74  56  53 SE13      29.95F
WASHINGTON *   SUNNY     77  57  50 SE14      29.98F
$$

ABBREVIATIONS USED IN REMARKS
   TC - TEMPERATURES IN CELSIUS
  WCI - WIND CHILL INDEX
   HX - HEAT INDEX
  VSB - VISIBILITY
$$




USA.gov is the U.S. government's official web portal to all federal, state and local government web resources and services.